Regional Weather Roundup
Issued by NWS

Home | Current Version | Previous Version | Graphics & Text | Print | Product List | Glossary On
Versions: 1 2 3 4 5 6 7 8 9 10 11 12 13 14 15 16 17 18 19 20 21 22 23 24 25 26 27 28 29 30 31 32 33 34 35 36 37 38 39 40 41 42 43 44 45 46 47 48 49 50
000
ASUS43 KLSX 281259
RWRMO

WEATHER SUMMARY FOR MISSOURI
NATIONAL WEATHER SERVICE SPRINGFIELD MO
700 AM CST SUN DEC 28 2014

NOTE: "FAIR" INDICATES FEW OR NO CLOUDS BELOW 12,000 FEET WITH NO
       SIGNIFICANT WEATHER AND/OR OBSTRUCTIONS TO VISIBILITY.
       CURRENT SKY AND/OR WEATHER CONDITIONS ARE NOT AVAILABLE FOR
       CHILLICOTHE AND FARMINGTON.

MOZ001>031-035>038-043-044-053-054-281400-
...NORTHERN AND WESTERN MISSOURI...

CITY           SKY/WX    TMP DP  RH WIND       PRES   REMARKS
KANSAS CTY INT CLEAR     18  16  92 SW6       30.20R WCI  10
KANSAS C DTWN  PTCLDY    21  17  84 CALM      30.23S
LEE`S SUMMIT   MOCLDY    20  16  84 S3        30.22R
ST JOSEPH      CLEAR     15  13  91 S3        30.21S
CHILLICOTHE      N/A     18  14  84 CALM      30.24R
KIRKSVILLE     MOCLDY    18  17  96 S5        30.20S WCI  11

$$
MOZ066>068-077>081-088>096-101>105-281400-
...SOUTHWEST MISSOURI...

CITY           SKY/WX    TMP DP  RH WIND       PRES   REMARKS
SPRINGFIELD    CLOUDY    26  22  84 CALM      30.21R
JOPLIN         CLOUDY    22  20  92 CALM      30.25R

$$
MOZ032>034-039>042-045>050-055>058-069>072-281400-
...CENTRAL MISSOURI...

CITY           SKY/WX    TMP DP  RH WIND       PRES   REMARKS
COLUMBIA       CLOUDY    27  22  81 CALM      30.22S
JEFFERSON CITY CLOUDY    29  22  75 CALM      30.25R
ROLLA          CLOUDY    27  22  81 NW6       30.19R WCI  20
SEDALIA        MOCLDY    24  20  84 SW3       30.23R
OSAGE BEACH    CLOUDY    27  21  80 CALM      30.24R

$$
MOZ051-052-059>065-281400-
...EAST CENTRAL MISSOURI...

CITY           SKY/WX    TMP DP  RH WIND       PRES   REMARKS
ST LOUIS INTL  CLOUDY    32  23  69 NW7       30.23R WCI  26
SPIRIT OF STL  CLOUDY    31  24  75 CALM      30.23R
ST CHARLES     CLOUDY    30  23  75 N8        30.23S WCI  22

$$
MOZ072>076-082>087-097>100-106>115-281400-
...SOUTH CENTRAL AND SOUTHEAST MISSOURI...

CITY           SKY/WX    TMP DP  RH WIND       PRES   REMARKS
CAPE GIRARDEAU CLOUDY    35  30  82 N8        30.22R WCI  29
FARMINGTON     CLOUDY    30  25  80 SE8       30.21R WCI  23
POPLAR BLUFF   CLOUDY    35  29  78 NW7       30.23R WCI  29
WEST PLAINS    CLOUDY    28  23  81 N5        30.21R WCI  23

$$



USA.gov is the U.S. government's official web portal to all federal, state and local government web resources and services.